�N����,����,�~����,�C��,���x,�C��,����,���ϕ���,�ő�u�ԕ���,�ő厞����,���˗�,�I�_���x,�n�����x,�ő啗���N��,DTYPE
"21/05/28","00:10",0.0,15.6,96.3,1001.9,312.9,0.7,1.2,321.0,0.00,15.1,130.0,"00:02:48",1
"21/05/28","00:20",0.0,15.6,96.2,1001.7,306.6,0.8,1.3,330.4,0.00,15.0,130.0,"00:17:04",1
"21/05/28","00:30",0.0,15.4,96.4,1002.4,265.7,0.7,1.2,264.1,0.00,14.9,130.0,"00:26:00",1
"21/05/28","00:40",0.0,15.4,96.4,1002.4,298.0,0.7,1.2,319.8,0.00,14.9,130.0,"00:38:32",1
"21/05/28","00:50",0.0,15.3,96.4,1002.9,323.8,0.7,1.0,327.0,0.00,14.8,130.0,"00:46:40",1
"21/05/28","01:00",0.0,15.1,96.5,1002.9,271.5,0.7,1.2,268.6,0.00,14.6,130.0,"00:52:32",1
"21/05/28","01:10",0.0,15.2,96.6,1002.9,323.9,1.0,1.7,330.5,0.00,14.7,130.0,"01:04:00",1
"21/05/28","01:20",0.0,15.0,96.5,1002.6,282.4,0.6,1.4,336.9,0.00,14.5,130.0,"01:10:32",1
"21/05/28","01:30",0.0,14.9,96.7,1002.6,306.2,0.6,1.2,307.0,0.00,14.4,130.0,"01:23:20",1
"21/05/28","01:40",0.0,14.9,96.7,1002.6,309.1,0.6,1.4,312.9,0.00,14.4,130.0,"01:35:20",1
"21/05/28","01:50",0.0,14.8,96.8,1002.9,295.9,1.0,2.0,315.1,0.00,14.3,130.0,"01:42:40",1
"21/05/28","02:00",0.0,15.0,96.8,1002.9,315.7,1.3,1.9,314.0,0.00,14.5,130.0,"01:51:28",1
"21/05/28","02:10",0.0,14.9,96.8,1003.4,290.1,0.8,1.7,307.1,0.00,14.4,130.0,"02:01:04",1
"21/05/28","02:20",0.0,14.6,96.8,1003.1,292.9,0.3,1.0,330.9,0.00,14.1,130.0,"02:10:48",1
"21/05/28","02:30",0.0,14.4,97.1,1003.1,274.0,0.8,1.3,313.4,0.00,14.0,130.0,"02:27:44",1
"21/05/28","02:40",0.0,14.7,97.1,1003.1,313.8,1.0,1.3,327.2,0.00,14.3,130.0,"02:30:24",1
"21/05/28","02:50",0.0,14.7,97.0,1003.1,332.8,1.0,1.6,326.4,0.00,14.3,130.0,"02:44:00",1
"21/05/28","03:00",0.0,14.5,97.1,1003.4,279.6,0.7,0.9,273.9,0.00,14.1,130.0,"02:50:56",1
"21/05/28","03:10",0.0,14.4,97.2,1003.4,308.2,1.0,1.6,323.2,0.00,14.0,130.0,"03:08:48",1
"21/05/28","03:20",0.0,14.5,97.2,1003.1,270.1,0.7,1.2,305.1,0.00,14.1,130.0,"03:10:08",1
"21/05/28","03:30",0.0,14.5,97.3,1003.1,294.0,0.8,1.4,318.6,0.00,14.1,130.0,"03:24:48",1
"21/05/28","03:40",0.0,14.6,97.3,1003.1,300.5,1.1,1.6,334.4,0.00,14.2,130.0,"03:30:48",1
"21/05/28","03:50",0.0,14.6,97.4,1003.1,337.3,1.0,1.4,334.3,0.00,14.2,130.0,"03:43:36",1
"21/05/28","04:00",0.0,14.8,97.4,1003.1,340.1,1.1,1.6,338.0,0.00,14.4,130.0,"03:59:20",1
"21/05/28","04:10",0.0,14.8,97.4,1002.9,307.9,1.1,1.6,329.4,0.00,14.4,130.0,"04:00:40",1
"21/05/28","04:20",0.0,14.7,97.4,1002.9,292.5,0.8,1.3,309.6,0.00,14.3,130.0,"04:10:02",1
"21/05/28","04:30",0.0,14.8,97.4,1002.6,319.6,1.3,2.2,326.0,0.00,14.4,130.0,"04:26:48",1
"21/05/28","04:40",0.0,14.7,97.5,1002.9,314.7,1.2,2.2,339.4,0.00,14.3,130.0,"04:30:56",1
"21/05/28","04:50",0.0,14.6,97.5,1003.1,266.2,0.7,1.8,316.6,0.00,14.2,130.0,"04:41:36",1
"21/05/28","05:00",0.0,14.6,97.6,1003.4,285.8,1.0,1.7,261.2,0.00,14.3,130.0,"04:54:32",1
"21/05/28","05:10",0.0,14.8,97.6,1003.6,300.1,1.1,1.6,320.2,0.00,14.5,130.0,"05:05:52",1
"21/05/28","05:20",0.0,14.9,97.6,1003.6,315.0,1.1,1.6,311.2,0.00,14.6,130.0,"05:11:52",1
"21/05/28","05:30",0.0,14.9,97.7,1003.8,322.5,2.0,2.8,337.7,0.00,14.6,130.0,"05:24:32",1
"21/05/28","05:40",0.0,15.0,97.7,1004.3,305.5,1.0,1.7,334.1,0.00,14.7,130.0,"05:30:40",1
"21/05/28","05:50",0.0,15.1,97.7,1004.1,311.8,1.0,1.8,337.6,0.00,14.8,130.0,"05:48:48",1
"21/05/28","06:00",0.0,15.4,97.7,1004.3,317.4,1.5,2.1,344.0,0.00,15.1,130.0,"05:55:04",1
"21/05/28","06:10",0.0,15.6,97.7,1004.5,316.5,1.3,2.5,341.9,0.01,15.3,130.0,"06:00:40",1
"21/05/28","06:20",0.0,15.8,97.7,1004.3,285.7,0.8,1.3,271.4,0.02,15.5,130.0,"06:11:04",1
"21/05/28","06:30",0.0,16.0,97.7,1004.3,271.3,0.3,0.8,260.1,0.03,15.7,130.0,"06:26:56",1
"21/05/28","06:40",0.0,16.3,97.6,1005.0,268.3,0.3,1.0,105.4,0.05,16.0,130.0,"06:32:24",1
"21/05/28","06:50",0.0,16.5,97.6,1004.5,236.3,0.2,0.6,262.3,0.05,16.2,130.0,"06:41:04",1
"21/05/28","07:00",0.0,16.6,97.5,1004.8,160.8,0.2,0.8,178.3,0.05,16.2,130.0,"06:50:16",1
"21/05/28","07:10",0.0,16.9,97.6,1004.8,278.6,0.2,0.6,321.5,0.06,16.6,130.0,"07:06:16",1
"21/05/28","07:20",0.0,17.9,97.7,1004.8,328.8,1.0,1.7,337.0,0.16,17.6,130.0,"07:15:20",1
"21/05/28","07:30",0.0,18.1,97.3,1005.0,284.3,0.8,1.7,238.3,0.16,17.7,130.0,"07:25:28",1
"21/05/28","07:40",0.0,18.1,97.2,1004.8,258.0,0.7,2.1,233.8,0.15,17.7,130.0,"07:35:04",1
"21/05/28","07:50",0.0,18.1,96.3,1004.5,270.3,0.8,1.6,275.5,0.13,17.5,130.0,"07:42:40",1
"21/05/28","08:00",0.0,18.6,96.7,1005.0,303.0,0.8,1.3,312.4,0.09,18.1,130.0,"07:51:36",1
"21/05/28","08:10",0.0,18.4,96.2,1004.5,285.3,0.6,1.4,324.8,0.09,17.8,130.0,"08:02:00",1
"21/05/28","08:20",0.0,19.0,96.6,1004.5,317.9,1.0,1.8,348.0,0.09,18.5,130.0,"08:14:48",1
"21/05/28","08:30",0.0,19.1,96.7,1004.8,283.9,1.1,1.8,321.9,0.16,18.6,130.0,"08:22:00",1
"21/05/28","08:40",0.0,19.7,96.5,1004.3,345.2,0.5,1.4,2.7,0.27,19.2,130.0,"08:39:36",1
"21/05/28","08:50",0.0,18.9,95.8,1004.3,346.4,1.3,2.8,341.2,0.17,18.3,130.0,"08:46:40",1
"21/05/28","09:00",0.0,19.3,95.3,1004.5,332.4,1.0,1.6,339.1,0.39,18.6,130.0,"08:50:08",1
"21/05/28","09:10",0.0,19.8,93.8,1004.5,315.9,0.8,2.2,328.5,0.37,18.8,130.0,"09:06:48",1
"21/05/28","09:20",0.0,20.3,92.6,1004.3,15.1,0.7,1.4,5.2,0.29,19.1,130.0,"09:10:16",1
"21/05/28","09:30",0.0,21.1,90.6,1004.1,184.0,0.7,2.6,175.1,0.44,19.5,130.0,"09:20:02",1
"21/05/28","09:40",0.0,21.8,87.5,1003.6,196.6,0.7,2.5,191.7,0.38,19.7,130.0,"09:30:24",1
"21/05/28","09:50",0.0,21.7,82.0,1003.6,186.4,1.2,2.6,201.7,0.42,18.5,130.0,"09:43:12",1
"21/05/28","10:00",0.0,21.7,79.0,1003.6,179.7,1.6,2.9,191.3,0.36,17.9,130.0,"09:55:28",1
"21/05/28","10:10",0.0,21.7,76.5,1003.4,191.8,2.0,4.4,202.0,0.38,17.4,130.0,"10:00:16",1
"21/05/28","10:20",0.0,21.9,75.3,1003.4,186.0,1.7,4.0,202.9,0.37,17.4,130.0,"10:12:48",1
"21/05/28","10:30",0.0,22.3,75.0,1003.1,170.0,1.2,3.2,122.9,0.37,17.7,130.0,"10:23:28",1
"21/05/28","10:40",0.0,22.7,74.6,1002.9,150.3,1.0,3.1,185.0,0.40,18.0,130.0,"10:35:28",1
"21/05/28","10:50",0.0,22.6,73.8,1003.1,148.8,1.2,3.1,190.0,0.33,17.7,130.0,"10:43:04",1
"21/05/28","11:00",0.0,22.3,74.5,1003.1,165.0,1.7,3.5,223.5,0.32,17.6,130.0,"10:54:32",1
"21/05/28","11:10",0.0,22.5,73.5,1002.6,145.2,1.6,3.6,130.6,0.35,17.6,130.0,"11:03:52",1
"21/05/28","11:20",0.0,22.9,74.0,1002.4,198.9,1.3,3.1,218.6,0.40,18.1,130.0,"11:15:44",1
"21/05/28","11:30",0.0,23.2,71.5,1002.2,201.5,1.5,2.9,200.3,0.41,17.8,130.0,"11:26:24",1
"21/05/28","11:40",0.0,23.5,69.0,1001.9,169.7,1.6,3.4,132.2,0.49,17.5,130.0,"11:31:52",1
"21/05/28","11:50",0.0,23.9,67.3,1001.7,169.5,1.6,4.9,149.1,0.50,17.5,130.0,"11:48:00",1
"21/05/28","12:00",0.0,24.2,63.9,1001.7,179.9,2.2,3.6,160.8,0.54,17.0,130.0,"11:51:04",1
"21/05/28","12:10",0.0,24.3,63.2,1001.7,206.3,3.1,5.7,230.3,0.65,16.9,130.0,"12:06:56",1
"21/05/28","12:20",0.0,24.9,62.9,1001.0,176.5,2.1,4.4,211.9,0.68,17.4,130.0,"12:17:52",1
"21/05/28","12:30",0.0,24.8,61.7,1000.8,179.8,2.3,4.1,227.5,0.57,17.0,130.0,"12:26:56",1
"21/05/28","12:40",0.0,24.3,61.3,1000.8,157.5,1.7,4.8,232.2,0.31,16.4,130.0,"12:32:24",1
"21/05/28","12:50",0.0,24.0,62.3,1000.3,173.1,1.3,2.6,192.6,0.27,16.4,130.0,"12:49:52",1
"21/05/28","13:00",0.0,24.1,62.9,1000.0,173.2,1.3,3.2,160.0,0.27,16.6,130.0,"12:51:28",1
"21/05/28","13:10",0.0,24.1,60.8,999.6,201.3,2.2,4.2,208.0,0.38,16.1,130.0,"13:04:56",1
"21/05/28","13:20",0.0,25.0,59.8,999.3,118.4,1.0,2.7,120.4,0.42,16.7,130.0,"13:19:44",1
"21/05/28","13:30",0.0,24.7,58.8,999.1,160.1,1.7,3.4,159.4,0.33,16.1,130.0,"13:27:20",1
"21/05/28","13:40",0.0,24.9,59.0,998.9,184.3,1.5,3.9,217.6,0.31,16.4,130.0,"13:33:52",1
"21/05/28","13:50",0.0,24.6,56.5,998.6,194.8,2.0,5.1,205.5,0.31,15.4,130.0,"13:48:24",1
"21/05/28","14:00",0.0,24.4,57.4,998.6,199.7,2.6,5.2,224.6,0.28,15.5,130.0,"13:59:28",1
"21/05/28","14:10",0.0,24.0,56.8,999.3,179.1,2.5,3.7,147.2,0.21,14.9,130.0,"14:09:20",1
"21/05/28","14:20",0.0,24.1,57.8,998.6,186.3,2.3,4.2,190.7,0.24,15.3,130.0,"14:14:40",1
"21/05/28","14:30",0.0,24.5,54.6,998.9,193.7,2.5,4.5,218.6,0.30,14.8,130.0,"14:28:00",1
"21/05/28","14:40",0.0,24.2,55.4,998.4,189.8,2.2,3.5,183.2,0.21,14.7,130.0,"14:33:04",1
"21/05/28","14:50",0.0,24.1,54.5,998.6,207.8,1.7,3.4,193.4,0.21,14.4,130.0,"14:40:16",1
"21/05/28","15:00",0.0,24.1,53.2,998.9,211.9,1.6,3.6,228.2,0.22,14.0,130.0,"14:58:56",1
"21/05/28","15:10",0.0,24.0,53.9,999.1,234.8,1.7,2.9,298.3,0.18,14.1,130.0,"15:07:04",1
"21/05/28","15:20",0.0,24.1,54.7,998.6,213.6,1.6,3.1,208.8,0.20,14.5,130.0,"15:13:04",1
"21/05/28","15:30",0.0,24.2,54.0,998.6,251.4,1.5,3.7,227.7,0.19,14.4,130.0,"15:27:28",1
"21/05/28","15:40",0.0,24.3,53.7,998.4,210.1,1.0,2.5,171.7,0.18,14.4,130.0,"15:34:48",1
"21/05/28","15:50",0.0,24.2,53.6,998.6,229.4,1.1,3.3,237.9,0.17,14.2,130.0,"15:46:24",1
"21/05/28","16:00",0.0,24.2,53.7,998.9,237.1,1.3,4.0,222.1,0.21,14.3,130.0,"15:58:24",1
"21/05/28","16:10",0.0,24.1,55.0,998.6,210.6,1.3,3.3,180.2,0.13,14.5,130.0,"16:07:44",1
"21/05/28","16:20",0.0,24.1,54.0,998.2,270.4,0.5,1.9,173.0,0.10,14.3,130.0,"16:10:16",1
"21/05/28","16:30",0.0,23.6,56.0,997.9,247.6,1.0,1.9,276.3,0.08,14.4,130.0,"16:21:12",1
"21/05/28","16:40",0.0,23.4,56.7,998.2,266.4,1.0,2.4,202.7,0.07,14.4,130.0,"16:35:44",1
"21/05/28","16:50",0.0,23.4,57.7,997.9,265.2,1.0,1.8,340.1,0.08,14.6,130.0,"16:49:28",1
"21/05/28","17:00",0.0,23.4,58.1,997.9,276.1,1.0,2.2,257.2,0.10,14.7,130.0,"16:58:56",1
"21/05/28","17:10",0.0,23.4,58.6,998.2,251.5,0.8,2.1,234.7,0.08,14.9,130.0,"17:06:20",1
"21/05/28","17:20",0.0,23.2,59.4,998.2,331.0,1.7,3.1,343.7,0.07,14.9,130.0,"17:14:40",1
"21/05/28","17:30",0.0,23.1,61.4,997.7,327.9,0.8,1.9,335.7,0.05,15.3,130.0,"17:28:16",1
"21/05/28","17:40",0.0,22.9,62.3,998.2,293.5,0.7,1.7,315.6,0.05,15.4,130.0,"17:30:40",1
"21/05/28","17:50",0.0,22.7,63.0,997.9,271.1,0.3,0.8,235.1,0.03,15.3,130.0,"17:47:20",1
"21/05/28","18:00",0.0,22.5,64.6,998.2,280.0,0.5,0.9,255.9,0.03,15.5,130.0,"17:53:44",1
"21/05/28","18:10",0.0,22.3,67.1,998.6,319.4,1.1,2.2,327.5,0.02,15.9,130.0,"18:08:40",1
"21/05/28","18:20",0.0,21.8,68.3,998.4,336.7,1.3,2.7,327.4,0.01,15.7,130.0,"18:14:32",1
"21/05/28","18:30",0.0,21.6,69.0,998.6,299.3,0.5,1.2,312.0,0.00,15.7,130.0,"18:24:00",1
"21/05/28","18:40",0.0,21.4,70.2,998.6,339.0,0.8,2.0,341.0,0.00,15.8,130.0,"18:37:36",1
"21/05/28","18:50",0.0,21.0,71.5,998.4,326.5,0.3,1.1,341.7,0.00,15.7,130.0,"18:40:24",1
"21/05/28","19:00",0.0,20.6,72.9,998.6,316.0,0.5,1.3,342.1,0.00,15.6,130.0,"18:59:04",1
"21/05/28","19:10",0.0,20.3,74.5,998.6,348.7,0.6,1.2,346.6,0.00,15.7,130.0,"19:00:32",1
"21/05/28","19:20",0.0,20.0,75.7,998.6,313.2,0.7,1.1,321.7,0.00,15.6,130.0,"19:16:08",1
"21/05/28","19:30",0.0,19.9,77.4,998.6,330.8,0.8,2.2,313.7,0.00,15.9,130.0,"19:29:36",1
"21/05/28","19:40",0.0,19.5,78.9,998.6,317.9,1.2,2.8,319.7,0.00,15.8,130.0,"19:39:12",1
"21/05/28","19:50",0.0,19.2,79.9,998.6,317.9,1.6,3.3,339.0,0.00,15.7,130.0,"19:40:56",1
"21/05/28","20:00",0.0,18.9,80.4,998.9,310.0,0.6,1.0,318.4,0.00,15.5,130.0,"19:58:08",1
"21/05/28","20:10",0.0,18.7,81.2,998.6,284.8,0.7,1.0,338.8,0.00,15.5,130.0,"20:01:52",1
"21/05/28","20:20",0.0,18.5,82.0,998.6,270.9,0.8,1.9,291.8,0.00,15.4,130.0,"20:19:28",1
"21/05/28","20:30",0.0,18.6,82.1,998.9,314.7,1.1,2.1,333.7,0.00,15.5,130.0,"20:23:04",1
"21/05/28","20:40",0.0,18.6,82.5,998.9,324.4,1.0,2.0,353.9,0.00,15.6,130.0,"20:34:00",1
"21/05/28","20:50",0.0,18.4,83.0,998.6,293.3,1.0,1.8,336.3,0.00,15.5,130.0,"20:45:04",1
"21/05/28","21:00",0.0,18.2,83.5,998.4,307.9,0.8,1.7,314.4,0.00,15.4,130.0,"20:56:56",1
"21/05/28","21:10",0.0,18.1,84.4,998.4,309.7,1.0,1.6,318.7,0.00,15.5,130.0,"21:06:32",1
"21/05/28","21:20",0.0,17.9,85.0,998.6,304.4,1.3,2.2,322.1,0.00,15.4,130.0,"21:19:12",1
"21/05/28","21:30",0.0,17.7,85.5,998.4,324.3,1.2,2.5,314.0,0.00,15.3,130.0,"21:20:40",1
"21/05/28","21:40",0.0,17.7,85.7,998.6,317.4,1.1,1.8,313.2,0.00,15.3,130.0,"21:32:56",1
"21/05/28","21:50",0.0,17.7,85.9,998.4,330.1,0.8,1.2,270.6,0.00,15.4,130.0,"21:44:16",1
"21/05/28","22:00",0.0,17.6,85.9,998.4,284.5,0.7,1.6,347.4,0.00,15.3,130.0,"21:50:32",1
"21/05/28","22:10",0.0,17.3,86.2,998.4,303.5,1.0,1.8,331.6,0.00,15.0,130.0,"22:05:52",1
"21/05/28","22:20",0.0,17.2,86.4,998.2,308.9,1.1,1.3,316.7,0.00,15.0,130.0,"22:15:52",1
"21/05/28","22:30",0.0,17.0,86.6,998.2,308.3,0.7,1.4,332.3,0.00,14.8,130.0,"22:20:16",1
"21/05/28","22:40",0.0,16.9,87.0,998.6,331.5,0.7,1.2,329.0,0.00,14.8,130.0,"22:31:44",1
"21/05/28","22:50",0.0,16.7,87.2,998.4,305.0,0.6,1.1,316.9,0.00,14.6,130.0,"22:49:36",1
"21/05/28","23:00",0.0,16.9,87.8,998.4,341.3,1.2,1.9,335.5,0.00,14.9,130.0,"22:56:08",1
"21/05/28","23:10",0.0,16.6,88.1,998.4,273.7,0.5,1.2,353.8,0.00,14.7,130.0,"23:00:24",1
"21/05/28","23:20",0.0,16.4,88.5,998.4,310.6,0.7,1.6,308.1,0.00,14.5,130.0,"23:15:20",1
"21/05/28","23:30",0.0,16.5,89.1,998.4,323.5,1.3,2.0,324.7,0.00,14.7,130.0,"23:26:32",1
"21/05/28","23:40",0.0,16.2,89.4,998.4,295.5,0.7,1.7,299.9,0.00,14.5,130.0,"23:30:56",1
"21/05/28","23:50",0.0,16.1,89.8,997.9,295.8,0.7,1.0,280.2,0.00,14.5,130.0,"23:42:00",1
"21/05/28","24:00",0.0,16.0,90.1,997.9,308.3,1.0,1.8,318.0,0.00,14.4,130.0,"23:57:44",1
